Fort Eustis, VA

3:37 AM EST on November 18, 2019 (GMT -0500)
Felker Army Air Field

Weather History for KFAF - October, 2019

Change the Weather History Date:

Tuesday, October 22, 2019

  Actual Average Record
Temperature  
Mean Temperature 65 °F -  
Max Temperature 72 °F 66 °F 81 °F (2007)
Min Temperature 58 °F 49 °F 37 °F (2018)
Growing Degree Days 15 (Base 50)    
Moisture  
Dew Point 59 °F    
Average Humidity 82    
Maximum Humidity 88    
Minimum Humidity 64    
Precipitation  
Precipitation 0.00 in - - ()
Sea Level Pressure  
Sea Level Pressure 29.90 in    
Wind  
Wind Speed 6 mph ()    
Max Wind Speed 17 mph    
Max Gust Speed 23 mph    
Visibility 10.0 miles    
Events Rain    
Averages and records for this station are not official NWS values.
T = Trace of Precipitation, MM = Missing Value Source: Averaged Metar Reports

Daily Weather History Graph

Daily Weather History Graph

Search for Another Location

Airport or City:

Astronomy

Oct. 22, 2019 Rise Set
Actual Time 7:20 AM EDT 6:20 PM EDT
Civil Twilight 6:54 AM EDT 6:47 PM EDT
Nautical Twilight 6:23 AM EDT 7:17 PM EDT
Astronomical Twilight 5:53 AM EDT 7:47 PM EDT
Moon 12:39 AM EDT (10/22) 3:17 PM EDT (10/22)
Length of Visible Light 11h 53m
Length of Day
11h 00m
Last Quarter, 37% of the Moon is Illuminated
Oct 22
Last Quarter
Oct 27
New
Nov 4
First Quarter
Nov 12
Full
Nov 19
Last Quarter

Hourly Weather History & Observations

Time (EDT) Temp. Dew Point Humidity Pressure Visibility Wind Dir Wind Speed Gust Speed Precip Events Conditions
12:56 AM 59.2 °F 55.0 °F 86% 30.07 in 10.0 mi SSE 3.5 mph - N/A   Overcast
1:56 AM 59.5 °F 55.0 °F 85% 30.07 in 10.0 mi Calm Calm - N/A   Overcast
3:06 AM 59.0 °F 55.4 °F 88% 30.06 in 10.0 mi WSW 5.8 mph - N/A   Overcast
3:56 AM 58.5 °F 54.7 °F 87% 30.04 in 10.0 mi SW 3.5 mph - N/A   Overcast
4:16 AM 59.0 °F 55.4 °F 88% 30.03 in 10.0 mi SSW 5.8 mph - N/A   Overcast
4:36 AM 59.0 °F 55.4 °F 88% 30.03 in 10.0 mi South 3.5 mph - N/A   Overcast
4:56 AM 58.6 °F 54.9 °F 87% 30.02 in 10.0 mi South 4.6 mph - N/A   Overcast
5:56 AM 59.4 °F 55.2 °F 86% 30.03 in 10.0 mi South 4.6 mph - N/A   Overcast
6:56 AM 59.7 °F 55.2 °F 85% 29.99 in 10.0 mi South 9.2 mph - N/A   Overcast
7:56 AM 59.7 °F 55.2 °F 85% 30.00 in 10.0 mi South 6.9 mph - N/A   Overcast
8:46 AM 59.0 °F 55.4 °F 88% 30.00 in 10.0 mi South 6.9 mph - N/A   Overcast
8:47 AM 59.0 °F 55.4 °F 88% 30.00 in 10.0 mi South 5.8 mph - N/A   Overcast
9:56 AM 60.3 °F 56.1 °F 86% 30.00 in 10.0 mi South 6.9 mph - N/A   Overcast
10:36 AM 60.8 °F 55.4 °F 82% 29.99 in 10.0 mi SSE 5.8 mph - N/A   Overcast
10:46 AM 60.8 °F 57.2 °F 88% 29.98 in 10.0 mi SE 8.1 mph - N/A   Overcast
10:56 AM 61.2 °F 56.7 °F 85% 29.97 in 10.0 mi SSE 6.9 mph - N/A   Overcast
11:36 AM 62.6 °F 57.2 °F 82% 29.94 in 10.0 mi SE 11.5 mph 18.4 mph N/A   Overcast
11:56 AM 62.1 °F 56.5 °F 82% 29.93 in 10.0 mi SE 11.5 mph - N/A   Overcast
12:37 PM 64.4 °F 59.0 °F 83% 29.91 in 10.0 mi SSE 10.4 mph - N/A   Mostly Cloudy
12:46 PM 66.2 °F 59.0 °F 78% 29.91 in 10.0 mi South 9.2 mph - N/A   Mostly Cloudy
12:56 PM 66.2 °F 58.5 °F 76% 29.91 in 10.0 mi SSE 8.1 mph - N/A   Mostly Cloudy
1:56 PM 70.2 °F 59.0 °F 68% 29.85 in 10.0 mi SE 12.7 mph - N/A   Mostly Cloudy
2:56 PM 72.0 °F 59.0 °F 64% 29.81 in 10.0 mi SE 5.8 mph - N/A   Mostly Cloudy
3:56 PM 71.4 °F 61.2 °F 70% 29.81 in 10.0 mi South 9.2 mph - N/A   Mostly Cloudy
4:15 PM 71.6 °F 60.8 °F 69% 29.81 in 10.0 mi South 8.1 mph - N/A   Light Drizzle
4:33 PM 69.8 °F 62.6 °F 78% 29.80 in 10.0 mi SSE 8.1 mph - N/A   Overcast
4:41 PM 69.8 °F 62.6 °F 78% 29.80 in 10.0 mi SSE 9.2 mph - N/A Rain Light Rain
4:56 PM 69.4 °F 62.2 °F 78% 29.79 in 10.0 mi SSE 8.1 mph - 0.00 in   Overcast
5:56 PM 69.8 °F 62.2 °F 77% 29.79 in 10.0 mi SSE 8.1 mph - N/A   Overcast
6:56 PM 69.4 °F 62.2 °F 78% 29.79 in 10.0 mi SSE 6.9 mph - N/A   Mostly Cloudy
7:15 PM 69.8 °F 62.6 °F 78% 29.79 in - South 9.2 mph - N/A Rain Light Rain
7:25 PM 69.8 °F 62.6 °F 78% 29.79 in 10.0 mi SSE 10.4 mph - N/A   Mostly Cloudy
7:56 PM 69.8 °F 63.7 °F 81% 29.79 in 10.0 mi SSE 8.1 mph - 0.00 in   Mostly Cloudy
8:56 PM 69.4 °F 63.7 °F 82% 29.81 in 10.0 mi South 3.5 mph - N/A   Mostly Cloudy
9:46 PM 68.0 °F 62.6 °F 83% 29.82 in 10.0 mi WSW 3.5 mph - N/A   Mostly Cloudy
9:56 PM 69.1 °F 64.4 °F 85% 29.82 in 10.0 mi Calm Calm - N/A   Mostly Cloudy
10:46 PM 68.0 °F 62.6 °F 83% 29.83 in 10.0 mi WNW 11.5 mph - N/A   Overcast
10:56 PM 66.9 °F 62.2 °F 85% 29.84 in 10.0 mi WNW 12.7 mph - N/A   Overcast
11:16 PM 64.4 °F 60.8 °F 88% 29.84 in 10.0 mi WNW 12.7 mph - N/A   Mostly Cloudy
11:26 PM 64.4 °F 59.0 °F 83% 29.84 in 10.0 mi NW 17.3 mph 23.0 mph N/A   Overcast
11:36 PM 64.4 °F 59.0 °F 83% 29.84 in 10.0 mi NW 12.7 mph 21.9 mph N/A   Overcast
11:56 PM 63.0 °F 58.3 °F 85% 29.84 in 10.0 mi NW 10.4 mph - N/A   Mostly Cloudy